Regional Weather Roundup
Issued by NWS

Home | Current Version | Previous Version | Graphics & Text | Print | Product List | Glossary On
Versions: 1 2 3 4 5 6 7 8 9 10 11 12 13 14 15 16 17 18 19 20 21 22 23 24 25 26 27 28 29 30 31 32 33 34 35 36 37 38 39 40 41 42 43 44 45 46 47 48 49 50
000
ASUS43 KLOT 271503
RWRIL

ILLINOIS REGIONAL WEATHER ROUNDUP
NATIONAL WEATHER SERVICE CHICAGO/ROMEOVILLE IL
1000 AM CDT THU APR 27 2017

NOTE: "FAIR" INDICATES FEW OR NO CLOUDS BELOW 12,000 FEET WITH NO
SIGNIFICANT WEATHER AND/OR OBSTRUCTIONS TO VISIBILITY.

* THESE STATIONS ARE NOT UNDER NWS QUALITY CONTROL. THEY ALSO MAY NOT
  REPORT WEATHER SUCH AS PRECIPITATION OR FOG.

ILZ001-002-007-009-015-016-024-271600-
NORTHWEST ILLINOIS

CITY           SKY/WX    TMP DP  RH WIND       PRES   REMARKS
MOLINE         CLOUDY    41  34  76 W20       29.61R
STERLING*      CLOUDY    41  38  89 W21       29.58R
SAVANNA*       CLOUDY    40  37  87 W16G23    29.57R
$$

ILZ003-004-008-010-011-017-018-271600-
NORTH CENTRAL ILLINOIS

CITY           SKY/WX    TMP DP  RH WIND       PRES   REMARKS
ROCKFORD       LGT RAIN  41  37  86 W14G22    29.54R
FREEPORT*      CLOUDY    37  35  94 W13G21    29.55S WCI  28
ROCHELLE*      DRIZZLE   39  37  92 W20       29.56R WCI  30
DE KALB*       DRIZZLE   42  39  90 W17G24    29.54R
PERU*          CLOUDY    40  37  89 W18G25    29.60R
$$

ILZ005-006-012>014-019>023-271600-
NORTHEAST ILLINOIS

CITY           SKY/WX    TMP DP  RH WIND       PRES   REMARKS
CHICAGO-OHARE  CLOUDY    47  41  80 W21G30    29.49R
CHICAGO-MIDWAY CLOUDY    48  41  76 W20G30    29.51R
AURORA         LGT RAIN  45  40  82 W22G31    29.54R
LANSING*       CLOUDY    46  43  88 SW21G29   29.55R
JOLIET*        CLOUDY    46  40  81 W15G26    29.56R
WAUKEGAN       CLOUDY    46  42  86 SW14G26   29.45R
DUPAGE AIRPORT LGT RAIN  45  41  86 W21G32    29.52R
KANKAKEE*      CLOUDY    46  41  83 SW20G25   29.60R
WHEELING       CLOUDY    46  42  86 W18G28    29.49R
MORRIS*        CLOUDY    43  38  83 W20G28    29.56R
NORTHERLY ISL    N/A     47  40  76 SW13        N/A
$$

LMZ740>746-271600-
SOUTHERN LAKE MICHIGAN

STATION/POSITION SKY/WX   TEMP    WIND        PRES    VSBY  WAVE
                          AIR SEA DIR/SP/G                  HT/PER
                          (F)     (DEG/KT/KT) (MB)    (MI)  (FT/S)
SOUTHERN BUOY              47 42  240/ 23/ 29  993.4          3/ 4
HARRISON CRIB              47     260/ 29/ 36   N/A
BURNHAM HARBOR             47     220/  8/ 23   N/A
CALUMET HARBOR             47     240/ 13/ 22  998.8R
BURNS HARBOR               48     230/ 16/ 24 1000.3R
MICHIGAN CITY              48     230/ 25/ 27   N/A
MICHIGAN CITY 6N           47 48                N/A           5/ 4
ST. JOSEPH                 47 48  240/ 19/ 25  999.8R         6/ 5
$$

ILZ025>027-034>036-040-047-049-050-058-095>099-271600-
WEST-CENTRAL ILLINOIS

CITY           SKY/WX    TMP DP  RH WIND       PRES   REMARKS
QUINCY         CLOUDY    43  39  86 W12       29.68R
GALESBURG*     CLOUDY    41  37  86 W20G25    29.64R
MACOMB*        CLOUDY    43  40  90 W13       29.69R
JACKSONVILLE*  CLOUDY    43  41  93 W12G17    29.69R FOG
PITTSFIELD*    CLOUDY    45  40  83 W13G18    29.70S
$$

ILZ028>032-037-038-041>044-048-051>054-059>061-271600-
CENTRAL ILLINOIS

CITY           SKY/WX    TMP DP  RH WIND       PRES   REMARKS
PONTIAC        CLOUDY    46  42  87 W22G29    29.62R
BLOOMINGTON    CLOUDY    44  38  79 W17G28    29.65R
DECATUR        CLOUDY    47  42  83 W14       29.67R
PEORIA         CLOUDY    44  39  82 W15G21    29.65R
LACON*         CLOUDY    41  38  86 W15G21    29.63R
SPRINGFIELD    LGT RAIN  45  43  93 W16       29.68S FOG
TAYLORVILLE    NOT AVBL
$$

ILZ033-039-045-046-055>057-062-063-271600-
EAST-CENTRAL ILLINOIS

CITY           SKY/WX    TMP DP  RH WIND       PRES   REMARKS
CHAMPAIGN      CLOUDY    48  41  76 W20       29.66R
RANTOUL*       CLOUDY    48  43  82 W18G24    29.64R
MATTOON        CLOUDY    49  43  80 W10G22    29.67R
PARIS*         CLOUDY    47  44  87 W20G25    29.67R
$$

ILZ079-100>102-271600-
SOUTHWEST ILLINOIS

CITY           SKY/WX    TMP DP  RH WIND       PRES   REMARKS
ALTON          CLOUDY    48  41  76 W14       29.72R
BELLEVILLE     CLOUDY    50  45  84 SW5       29.72R
CAHOKIA*       CLOUDY    49  41  74 W9        29.73R
SPARTA*        CLOUDY    46  43  87 W9        29.76R
$$

ILZ064>066-069>071-074>076-080>082-084>086-088>090-092>094-271600-
SOUTH-CENTRAL ILLINOIS

CITY           SKY/WX    TMP DP  RH WIND       PRES   REMARKS
CARBONDALE     CLOUDY    50  44  80 W10       29.75R
CAIRO*         CLOUDY    50  44  79 W9        29.78R
EFFINGHAM*     CLOUDY    48  47  95 SW8       29.71R FOG
MT. VERNON     LGT RAIN  49  45  86 W8        29.74R
CENTRALIA*     CLOUDY    50  46  88 SW14      29.72R
SALEM*         CLOUDY    50  45  80 W14       29.72R
METROPOLIS*    CLOUDY    52  47  81 SW14      29.78R
$$

ILZ067-068-072-073-078-083-087-091-271600-
SOUTHEAST ILLINOIS

CITY           SKY/WX    TMP DP  RH WIND       PRES   REMARKS
LAWRENCEVILLE  CLOUDY    53  46  77 W15G21    29.70R
FLORA*         CLOUDY    51  46  82 W12G20    29.71R
FAIRFIELD*     CLOUDY    50  47  90 SW8       29.72R
HARRISBURG*    PTSUNNY   52  47  83 W9        29.75R
ROBINSON*      CLOUDY    51  45  79 W14       29.70R
CARMI*         CLOUDY    53  48  81 W15       29.72R
$$

ABBREVIATIONS USED IN REMARKS
   TC - TEMPERATURE IN CELSIUS
  WCI - WIND CHILL INDEX
   HX - HEAT INDEX
  VSB - VISIBILITY
$$




USA.gov is the U.S. government's official web portal to all federal, state and local government web resources and services.